Regional Weather Roundup
Issued by NWS State College, PA

Home | Current Version | Previous Version | Text Only | Print | Product List | Glossary On
Versions: 1 2 3 4 5 6 7 8 9 10 11 12 13 14 15 16 17 18 19 20 21 22 23 24 25 26 27 28 29 30 31 32 33 34 35 36 37 38 39 40 41 42 43 44 45 46 47 48 49 50
769
ASUS41 KCTP 280010
RWRCTP

REGIONAL WEATHER ROUNDUP
NATIONAL WEATHER SERVICE STATE COLLEGE PA
800 PM EDT THU APR 27 2017

Note: "fair" indicates few or no clouds below 12,000 feet with no
significant weather and/or obstructions to visibility.

* = STATION THAT DOES NOT REPORT PRECIPITATION /E.G. RAIN...SNOW...ETC/
    THUNDER OR FOG.

PAZ002>004-007>009-013>016-020>023-029>032-280100-
WESTERN PENNSYLVANIA

CITY           SKY/WX    TMP DP  RH WIND       PRES   REMARKS
ERIE           CLOUDY    60  53  77 SW8       29.70R
MEADVILLE      LGT RAIN  60  59  96 W5        29.72R
FRANKLIN*      CLOUDY    61  55  82 S10       29.71R
NEW CASTLE     LGT RAIN  63  61  93 VRB3      29.73R
BEAVER COUNTY  NOT AVBL
BUTLER*        MOCLDY    64  57  77 W8        29.72R
PITTSBURGH INT LGT RAIN  71  60  68 W9        29.70R
PITTSBURGH     CLEAR     71  55  56 S13       29.70R
INDIANA*       MOCLDY    68  59  73 SW14G20   29.76S
LATROBE        MOCLDY    66  61  82 SW12G17   29.74R
WASHINGTON CO* PTCLDY    72  55  56 S8        29.73R
$$

PAZ004>006-010>012-017>019-024>028-033>037-041-042-045-046-049>053-280100-
CENTRAL PENNSYLVANIA

CITY           SKY/WX    TMP DP  RH WIND       PRES   REMARKS
BRADFORD       CLOUDY    70  60  70 S10G23    29.71R
DUBOIS         CLOUDY    69  54  58 S10G17    29.73R
CLEARFIELD     CLOUDY    66  65  96 S5        29.75R
JOHNSTOWN      LGT RAIN  65  57  75 SW12      29.79R
ALTOONA        CLOUDY    69  63  81 W5        29.78R
STATE COLLEGE  CLOUDY    72  61  68 SW5       29.76R
WILLIAMSPORT   PTCLDY    77  60  55 E7G17     29.73R
SELINSGROVE    MOCLDY    74  62  66 S9        29.74R
FT INDIANTOWN  CLOUDY    74  67  79 SE3       29.77R
CAPITAL CITY   PTCLDY    76  62  62 SE8       29.75R
HARRISBURG     MOCLDY    72  63  73 SE7       29.75R
YORK           CLOUDY    74  64  71 VRB5      29.76S
$$

PAZ038>040-043-044-047-048-054-055-060>062-067>071-280100-
EASTERN PENNSYLVANIA

CITY           SKY/WX    TMP DP  RH WIND       PRES   REMARKS
SCRANTON       PTCLDY    75  62  64 VRB5      29.78R
MOUNT POCONO   CLOUDY    63  59  87 SE15      29.85R
ALLENTOWN      MOCLDY    74  62  66 SE9       29.80S
QUAKERTOWN*    MOCLDY    72  64  78 SE10      29.82S
READING        MOCLDY    75  65  70 S12       29.77F
LANCASTER      MOCLDY    72  67  84 SE9       29.77F
COATESVILLE    PTCLDY    72  64  78 SE7       29.82S
POTTSTOWN      MOCLDY    74  63  68 VRB3      29.81S
BLUE BELL      MOCLDY    70  63  78 E3        29.83R
DOYLESTOWN     PTCLDY    68  64  87 CALM      29.82R
WILLOW GROVE   NOT AVBL
NORTH PHILA    MOCLDY    70  62  76 SE9       29.84S
PHILADELPHIA   MOCLDY    72  62  71 SE6       29.81R
$$




USA.gov is the U.S. government's official web portal to all federal, state and local government web resources and services.